Location: Newark
(43.6583°N, 1.6617°E)
Time: 22:46:50
(UTC+00:00)

Transit 4A - Pass Details

Date: 02 September 2019
Orbit: 865 x 980 km, 66.8° (Epoch: 18 September)

Event Time Altitude Azimuth Distance (km) Brightness Sun altitude
Rises 17:48:57 0° 269° (W) 3,679 13.6 6.1°
Reaches altitude 10° 17:52:37 10° 290° (WNW) 2,730 12.4 5.5°
Maximum altitude 17:56:32 17° 328° (NNW) 2,277 10.6 4.8°
Drops below altitude 10° 18:00:26 10° 6° (N) 2,709 10.4 4.1°
Sets 18:04:05 0° 27° (NNE) 3,639 10.8 3.4°
